Погода в Калиновом Озере

Россия / Краснодарский край     43°36′58″N   39°53′09″E
темп.,
°C
ветер,
м/с
пор.,
м/с
влажн.,
%
обл.,
%
осадки,
мм/ч
давл.,
гПа
погр.,
м
12 мая, ср
ср1200:00+7всв117283 0.0 101855
03:00+8всв116063 0.0 101741
06:00+7всв225962 0.0 101746
09:00+14з21465 0.0 1015455
12:00+16з22455 0.0 1014615
15:00+18з22445 0.0 1013534
18:00+16сз226290 0.0 101268
21:00+13св32613 0.0 101231
13 мая, чт
чт1300:00+12св33490 0.0 101242
03:00+13всв32450 0.0 101134
06:00+13всв32540 0.0 101131
09:00+20з114610 0.0 1011264
12:00+24з22375 0.0 1011633
15:00+26зюз12345 0.0 1010638
18:00+24с225537 0.0 100917
21:00+18всв4344100 0.0 101045
14 мая, пт
пт1400:00+17всв32400 0.0 101129
03:00+17св43381 0.0 101139
06:00+16всв32490 0.0 101130
09:00+24зюз11410 0.0 1011236
12:00+26юз11385 0.0 1011444
15:00+26зсз113813 0.0 1011491
18:00+24зсз116118 0.0 101015
21:00+19св225947 0.0 101122
15 мая, сб
сб1500:00+18в215998 0.0 101218
03:00+16в11701 0.0 101317
06:00+16в22746 0.0 101426
09:00+20ююз22670 0.0 1014300
12:00+21ююз33640 0.0 1015485
15:00+21юз21640 0.0 1014378
18:00+19ююз11740 0.1 1013113
21:00+15юв12865 0.1 101344
16 мая, вс
вс1600:00+14в11855 0.0 101318
03:00+15всв1174100 0.0 101114
06:00+16св226870 0.0 100918
09:00+22зсз115586 0.0 1008258
12:00+24з2253100 0.0 1006484
15:00+26зсз2250100 0.0 1004428
18:00+25ссз116896 0.0 100316
21:00+20в236992 0.0 100445